Lid_Strength_Index
2 1 0 3 10 11 13 11 10 10 10 8 8 8 8 9 9 14 10 9 7 9 8 10 3 3 1 -1 -1 -1 -1 -1 -1 -1 -1 -1 -1 -1 -2 -2 -2 -2 -2 -2 -2 -2 -2 -2 -2
4 1 2 6 13 14 13 11 11 10 9 8 7 7 9 12 11 11 11 9 8 8 9 9 4 3 3 0 -1 -1 -1 -1 -1 -1 -1 -1 -1 -1 -1 -1 -1 -2 -2 -2 -2 -2 -2 -2 -2
3 0 6 9 11 14 13 12 12 10 8 9 10 9 11 13 11 12 10 9 9 9 9 9 5 4 4 2 -1 -1 -1 -1 -1 -1 -1 -1 -1 -1 -1 -2 -2 -2 -2 -1 -2 -2 -2 -2 -2
2 4 6 12 12 11 12 13 12 11 9 9 10 11 11 10 11 11 10 9 9 9 8 8 6 5 6 4 1 -1 -1 -1 -1 -1 -1 -1 -1 -1 -1 -1 -1 -1 -1 -1 -2 -2 -2 -2 -2
2 5 11 12 12 11 13 13 12 12 11 11 11 12 12 11 10 10 10 9 9 9 8 9 7 7 6 6 4 2 -1 -1 -1 -1 -1 -1 -1 -1 -1 -1 -1 -1 -1 -1 -2 -2 -2 -2 -2
7 8 13 14 12 12 14 13 12 13 12 11 12 12 11 11 11 10 10 10 9 9 8 8 9 8 8 7 6 5 3 -1 -1 -1 -1 -1 -1 -1 -1 -1 -1 -1 -1 -2 -2 -2 -2 -2 -2
10 11 13 12 12 13 14 13 14 14 13 13 12 13 9 12 11 10 10 9 9 9 9 8 9 10 9 9 7 6 5 3 -1 -1 -1 -1 -1 -1 -1 -1 -1 -1 -2 -1 -1 -2 -2 -2 -2
9 10 14 14 14 14 13 13 13 14 15 12 12 13 13 12 11 9 9 9 9 9 9 9 8 10 10 10 8 8 7 5 3 -1 -0 0 0 -0 -1 -1 -1 -1 -1 -1 -1 -2 -2 -2 -2
8 14 15 15 15 14 14 15 14 13 14 14 13 13 11 10 10 10 10 9 9 9 9 9 8 9 10 9 9 9 9 7 5 0 1 1 -0 -0 0 0 -0 -1 -1 -1 -1 -2 -2 -1 -1
14 14 15 14 14 16 15 15 15 15 14 13 12 11 9 9 10 10 11 11 11 10 10 9 9 8 8 9 9 10 10 9 7 6 -0 -0 -0 -0 -0 1 0 -1 -1 -1 -1 -2 -1 -0 0
15 17 15 15 14 14 15 15 13 15 16 13 13 11 10 9 9 9 9 10 11 10 10 9 9 9 7 9 10 10 10 10 9 7 7 -0 -0 -0 0 -0 -0 -0 0 -1 -1 -1 0 -0 0
18 15 15 14 14 15 16 14 15 14 13 10 10 9 9 9 9 9 9 9 10 10 10 9 9 10 9 10 9 10 10 9 9 8 7 6 0 0 0 0 -0 -0 -0 0 0 0 -0 0 0
17 16 15 14 14 15 14 15 14 13 11 9 9 8 9 9 9 8 7 8 8 10 10 10 9 10 10 9 10 9 10 10 10 9 8 6 5 0 -0 -0 -0 -0 -0 0 0 0 1 1 1
16 16 15 14 15 14 15 14 13 11 9 9 9 10 10 9 9 9 8 9 8 8 9 9 9 9 10 10 9 11 10 9 10 10 9 8 6 -0 0 0 -0 -0 -0 0 0 1 1 1 1
16 18 16 15 15 15 14 15 13 11 9 10 10 10 10 9 9 10 9 9 9 8 8 9 9 9 10 11 10 10 11 9 10 11 9 8 7 1 -0 0 0 -0 -0 0 1 1 1 2 2
17 18 21 15 15 14 15 18 11 11 11 11 11 11 10 10 9 9 9 9 8 8 8 8 8 9 10 11 10 10 10 10 10 9 10 8 8 6 0 0 0 0 1 1 2 2 2 3 3
19 24 22 19 14 15 16 17 12 10 12 13 13 12 11 11 10 9 9 9 9 9 8 8 9 10 10 10 11 10 10 10 10 9 9 8 6 6 0 0 0 0 1 1 2 2 3 4 4
24 24 22 21 17 15 17 15 12 11 12 14 13 12 12 11 11 9 8 8 8 9 9 8 8 9 10 10 11 10 9 10 9 9 10 8 8 7 1 0 0 1 1 2 2 3 4 5 6
21 22 22 19 16 18 17 15 13 12 13 14 14 13 12 12 10 10 9 8 8 9 9 9 9 9 10 11 12 12 12 10 11 10 9 8 7 7 6 0 1 1 2 2 3 4 6 8 8
21 22 22 20 17 18 18 16 13 12 14 13 13 14 13 12 11 11 10 10 9 9 9 9 9 9 9 10 11 12 12 11 12 11 11 10 9 8 6 1 1 2 2 3 4 6 8 9 6
21 23 22 23 19 17 18 18 16 14 13 13 13 13 12 13 12 11 11 11 10 10 9 9 9 9 9 10 10 11 12 11 10 11 11 9 8 7 6 3 1 2 2 3 5 7 8 8 6
24 19 20 21 22 27 18 26 17 16 15 14 14 14 14 13 12 12 12 12 11 11 10 9 9 9 9 9 11 12 13 14 12 11 10 9 8 8 7 6 1 2 1 3 5 7 6 6 7
22 19 20 20 23 25 20 26 19 16 17 16 15 14 14 13 13 13 12 12 11 11 11 10 10 9 9 9 10 12 13 13 12 11 11 10 9 8 7 6 2 2 2 4 5 6 6 5 6
18 20 20 21 23 29 24 25 23 20 18 17 15 15 14 14 13 13 12 12 12 12 11 11 11 11 10 10 10 12 13 13 13 12 12 11 9 8 6 6 3 2 3 5 6 6 5 5 5
21 24 30 30 29 28 21 23 23 17 16 16 16 15 14 14 14 14 14 14 13 13 13 12 12 12 11 10 10 11 12 12 13 12 12 11 10 8 7 4 2 3 4 5 5 5 5 5 5
23 27 33 36 29 26 20 29 22 15 15 15 15 14 15 15 15 15 14 14 14 13 13 13 13 13 12 11 11 11 11 11 12 12 12 12 10 7 5 4 3 3 4 4 4 4 4 4 6
24 28 22 30 26 29 23 22 19 16 16 16 16 15 16 15 15 15 15 15 14 14 14 14 13 13 12 11 11 11 11 11 12 12 11 11 10 7 6 5 3 4 4 4 4 5 5 4 7
24 21 29 30 35 34 25 27 24 21 19 17 17 17 17 16 15 15 15 15 14 14 14 13 13 13 12 11 11 11 11 11 12 12 12 10 10 8 6 6 3 4 4 4 4 4 5 5 7
25 29 26 27 28 34 32 27 22 24 23 19 18 17 17 16 16 16 15 15 14 14 14 14 13 13 12 11 11 11 11 12 11 12 11 11 10 9 7 6 4 4 4 4 4 5 5 5 7
24 27 28 31 32 29 32 27 18 22 18 18 18 17 16 17 17 16 16 15 15 14 13 15 14 13 13 11 11 11 11 11 12 12 11 11 10 9 7 6 4 4 4 4 4 5 5 5 7